{"data":{"norad_id":53629,"intl_designator":"2022-104AT","name":"STARLINK-4602","alt_names":[],"object_type":"PAYLOAD","status":"ACTIVE","operator":null,"country":"US","launch_date":"2022-08-28","launch_site_code":"AFETR","launch_vehicle":null,"mission":null,"orbit_class":"UNKNOWN","rcs_meters":null,"size_class":null,"mass_kg":null,"dimensions":null,"purposes":["comms"],"wikipedia_slug":null,"has_3d_model":false,"image_url":null,"decayed_at":null,"tle_current":{"epoch":"2026-09-20T22:33:35.963712Z","epoch_age_seconds":43320,"freshness":"FRESH","line1":"1 53629U 22104AT  26263.93999958  .00000914  00000+0  38184-4 0  9995","line2":"2 53629  53.1598  65.5459 0000851  61.6465 298.4623 15.34395474225394","mean_motion":15.34395474,"eccentricity":8.51e-5,"inclination_deg":53.1598,"raan_deg":65.5459,"arg_perigee_deg":61.6465,"mean_anomaly_deg":298.4623,"bstar":3.8184e-5,"rev_number":22539,"period_min":93.84803490368,"perigee_km":462.13453581675,"apogee_km":463.29884911521,"semimajor_km":6840.853692466,"source":"CELESTRAK","updated_at":"2026-09-21T09:00:32.944060Z"}}}